K7ZQU-7 Weather Reports


Display with metric or nautical units.
time (UTC)temp
F
wind
direction
speed
MPH
gust
MPH
rain 1hr
in
rain 24hr
in
rain mn
in
humidity
%
barometer
mb
20260505152723 49 288 1.0 2.0 0.00 0.00 0.00 86 1013.0
20260505152221 48 269 3.0 3.0 0.00 0.00 0.00 87 1013.0
20260505151722 48 308 1.0 1.0 0.00 0.00 0.00 88 1013.0
20260505150724 48 359 2.0 1.0 0.00 0.00 0.00 88 1013.0
20260505150225 48 278 2.0 1.0 0.00 0.00 0.00 89 1013.0
20260505140229 47 307 0.0 0.0 0.00 0.00 0.00 93 1012.6
20260505130235 46 302 0.0 0.0 0.00 0.00 0.00 91 1012.2
20260505124735 46 276 4.0 0.0 0.00 0.00 0.00 91 1012.1
20260505124236 47 280 0.0 0.0 0.00 0.00 0.00 91 1012.1
20260505123737 47 288 3.0 0.0 0.00 0.00 0.00 91 1012.1
20260505123238 47 339 3.0 2.0 0.00 0.00 0.00 91 1012.1
20260505122736 47 332 0.0 0.0 0.00 0.00 0.00 91 1012.0
20260505121738 47 307 0.0 0.0 0.00 0.00 0.00 91 1012.1
20260505121239 47 298 2.0 0.0 0.00 0.00 0.00 91 1012.1
20260505120740 47 325 4.0 4.0 0.00 0.00 0.00 91 1012.0
20260505120239 47 300 0.0 1.0 0.00 0.00 0.00 90 1012.0
20260505115740 47 300 4.0 1.0 0.00 0.00 0.00 90 1012.0
20260505115241 47 298 2.0 0.0 0.00 0.00 0.00 90 1012.0
20260505114742 47 291 0.0 3.0 0.00 0.00 0.00 90 1012.0
20260505114243 47 291 2.0 0.0 0.00 0.00 0.00 91 1012.0
20260505112743 46 318 1.0 1.0 0.00 0.00 0.00 90 1012.1
20260505112244 46 304 2.0 0.0 0.00 0.00 0.00 91 1012.1
20260505111745 46 290 0.0 0.0 0.00 0.00 0.00 91 1012.1
20260505110744 46 297 3.0 1.0 0.00 0.00 0.00 90 1012.1
20260505110245 46 287 4.0 0.0 0.00 0.00 0.00 90 1012.1
20260505101749 47 269 3.0 2.0 0.00 0.00 0.00 89 1012.1
20260505100252 47 262 5.0 1.0 0.00 0.00 0.00 89 1012.1
20260505095750 47 318 5.0 3.0 0.00 0.00 0.00 89 1012.1
20260505095251 47 284 4.0 0.0 0.00 0.00 0.00 89 1012.1
20260505094253 47 295 2.0 2.0 0.00 0.00 0.00 90 1012.0
20260505093253 47 290 1.0 5.0 0.00 0.00 0.00 90 1012.1
20260505092754 47 301 0.0 5.0 0.00 0.00 0.00 91 1012.1
20260505092255 47 301 1.0 2.0 0.00 0.00 0.00 90 1012.1
20260505091756 47 321 2.0 2.0 0.00 0.00 0.00 90 1012.1
20260505090256 47 312 2.0 1.0 0.00 0.00 0.00 90 1012.1
20260505085757 47 297 0.0 4.0 0.00 0.00 0.00 90 1012.1
20260505085258 47 307 2.0 0.0 0.00 0.00 0.00 89 1012.2
20260505084257 47 300 0.0 0.0 0.00 0.00 0.00 89 1012.4
20260505083300 47 271 1.0 1.0 0.00 0.00 0.00 90 1012.4
20260505082801 47 350 2.0 5.0 0.00 0.00 0.00 90 1012.4
20260505082304 47 319 1.0 3.0 0.00 0.00 0.00 90 1012.4
20260505081301 47 347 0.0 4.0 0.00 0.00 0.00 90 1012.4
20260505080802 47 184 3.0 0.0 0.00 0.00 0.00 91 1012.4
20260505080303 47 252 0.0 0.0 0.00 0.00 0.00 90 1012.4
20260505075804 47 264 2.0 0.0 0.00 0.00 0.00 91 1012.4
20260505075304 47 298 2.0 0.0 0.00 0.00 0.00 91 1012.4
20260505074804 47 263 2.0 1.0 0.00 0.00 0.00 91 1012.4
20260505074305 47 284 2.0 0.0 0.00 0.00 0.00 91 1012.4
20260505073806 47 294 6.0 5.0 0.00 0.00 0.00 92 1012.4
20260505072805 47 302 3.0 0.0 0.00 0.00 0.00 92 1012.4
20260505072306 47 266 3.0 5.0 0.00 0.00 0.00 92 1012.4
20260505071807 47 248 1.0 2.0 0.00 0.00 0.00 91 1012.4
20260505070809 47 315 2.0 6.0 0.00 0.00 0.00 91 1012.4
20260505070309 47 293 4.0 5.0 0.00 0.00 0.00 91 1012.4
20260505065808 47 315 3.0 3.0 0.00 0.00 0.00 91 1012.4
20260505065310 47 278 5.0 7.0 0.00 0.00 0.00 92 1012.4
20260505064312 47 295 5.0 5.0 0.00 0.00 0.00 91 1012.4
20260505063810 47 287 0.0 0.0 0.00 0.00 0.00 91 1012.2
20260505063311 47 312 2.0 2.0 0.00 0.00 0.00 90 1012.4
20260505062812 47 323 3.0 3.0 0.00 0.00 0.00 89 1012.4
20260505062313 47 326 3.0 2.0 0.00 0.00 0.00 90 1012.4
20260505061814 47 330 3.0 3.0 0.00 0.00 0.00 90 1012.5
20260505060315 47 245 3.0 3.0 0.00 0.00 0.00 88 1012.4
20260505055816 47 276 2.0 4.0 0.00 0.00 0.00 86 1012.5
20260505055317 48 291 2.0 4.0 0.00 0.00 0.00 84 1012.6
20260505054316 48 291 3.0 3.0 0.00 0.00 0.00 84 1012.5
20260505053318 49 305 3.0 2.0 0.00 0.00 0.00 83 1012.6
20260505052819 49 285 4.0 4.0 0.00 0.00 0.00 82 1012.5
20260505052318 49 298 5.0 4.0 0.00 0.00 0.00 82 1012.6
20260505051320 49 319 4.0 3.0 0.00 0.00 0.00 83 1012.6
20260505050821 49 301 4.0 5.0 0.00 0.00 0.00 82 1012.6
20260505050322 49 305 6.0 7.0 0.00 0.00 0.00 81 1012.6
20260505041327 51 309 2.0 3.0 0.00 0.00 0.00 71 1012.4
20260505040825 51 329 5.0 3.0 0.00 0.00 0.00 71 1012.2
20260505040326 51 297 4.0 3.0 0.00 0.00 0.00 69 1012.2
20260505035827 52 318 3.0 2.0 0.00 0.00 0.00 69 1012.4
20260505035329 52 323 4.0 6.0 0.00 0.00 0.00 69 1012.2
20260505034830 52 314 5.0 3.0 0.00 0.00 0.00 68 1012.2
20260505034328 52 294 3.0 0.0 0.00 0.00 0.00 67 1012.2
20260505033829 53 328 3.0 2.0 0.00 0.00 0.00 67 1012.1
20260505033330 53 314 6.0 3.0 0.00 0.00 0.00 65 1012.0
20260505032831 53 308 5.0 4.0 0.00 0.00 0.00 63 1012.0
20260505032332 53 315 8.0 6.0 0.00 0.00 0.00 63 1012.0
20260505031332 54 300 6.0 2.0 0.00 0.00 0.00 60 1011.9
20260505030334 55 281 5.0 9.0 0.00 0.00 0.00 58 1011.9
20260505025835 55 294 7.0 5.0 0.00 0.00 0.00 57 1011.8
20260505024335 56 311 7.0 5.0 0.00 0.00 0.00 54 1011.7
20260505023338 57 312 4.0 5.0 0.00 0.00 0.00 51 1011.7
20260505022337 58 298 7.0 13.0 0.00 0.00 0.00 49 1011.8
20260505021838 58 321 4.0 2.0 0.00 0.00 0.00 48 1011.7
20260505021340 59 304 4.0 8.0 0.00 0.00 0.00 48 1011.7
20260505020841 59 300 7.0 11.0 0.00 0.00 0.00 46 1011.7
20260505020339 59 305 6.0 5.0 0.00 0.00 0.00 45 1011.7
20260505015840 60 311 7.0 7.0 0.00 0.00 0.00 43 1011.7
20260505015341 60 308 5.0 6.0 0.00 0.00 0.00 42 1011.7
20260505014843 60 316 6.0 2.0 0.00 0.00 0.00 40 1011.7
20260505014344 61 328 6.0 3.0 0.00 0.00 0.00 39 1011.8
20260505013842 61 314 5.0 3.0 0.00 0.00 0.00 40 1011.8
20260505013348 61 314 6.0 7.0 0.00 0.00 0.00 38 1011.8
20260505012844 61 13 5.0 8.0 0.00 0.00 0.00 38 1011.9
20260505012346 61 14 5.0 6.0 0.00 0.00 0.00 38 1011.9
20260505011847 62 235 5.0 1.0 0.00 0.00 0.00 36 1012.0
20260505010846 62 295 7.0 8.0 0.00 0.00 0.00 35 1011.9
20260505010347 62 321 7.0 5.0 0.00 0.00 0.00 35 1012.0
20260505005849 63 298 6.0 10.0 0.00 0.00 0.00 36 1012.1
20260505004349 64 284 7.0 15.0 0.00 0.00 0.00 34 1012.1
20260505003850 64 332 7.0 5.0 0.00 0.00 0.00 35 1012.1
20260505002351 64 326 3.0 5.0 0.00 0.00 0.00 36 1012.1
20260505001852 64 294 8.0 2.0 0.00 0.00 0.00 35 1012.1
20260505001353 64 357 7.0 4.0 0.00 0.00 0.00 35 1012.1
20260505000854 65 321 6.0 5.0 0.00 0.00 0.00 36 1012.1
20260505000358 65 315 3.0 9.0 0.00 0.00 0.00 36 1012.1
20260504235355 65 315 5.0 3.0 0.00 0.00 0.00 35 1012.1
20260504234856 65 58 5.0 4.0 0.00 0.00 0.00 34 1012.1
20260504233858 65 304 8.0 7.0 0.00 0.00 0.00 34 1012.2
20260504233357 65 316 4.0 7.0 0.00 0.00 0.00 36 1012.1
20260504232359 66 319 6.0 8.0 0.00 0.00 0.00 35 1012.1
20260504231900 66 315 6.0 6.0 0.00 0.00 0.00 36 1012.1
20260504230900 66 333 6.0 4.0 0.00 0.00 0.00 35 1012.2
20260504225902 66 326 6.0 8.0 0.00 0.00 0.00 36 1012.2
20260504225403 66 302 7.0 5.0 0.00 0.00 0.00 35 1012.2
20260504224904 66 293 6.0 5.0 0.00 0.00 0.00 36 1012.4
20260504224403 67 302 5.0 6.0 0.00 0.00 0.00 37 1012.4
20260504223904 67 298 8.0 6.0 0.00 0.00 0.00 36 1012.4
20260504223405 68 316 6.0 7.0 0.00 0.00 0.00 36 1012.4
20260504222906 68 335 4.0 4.0 0.00 0.00 0.00 35 1012.5
20260504222407 68 312 7.0 6.0 0.00 0.00 0.00 35 1012.6
20260504221905 68 297 6.0 8.0 0.00 0.00 0.00 34 1012.5
20260504221406 68 316 4.0 6.0 0.00 0.00 0.00 34 1012.6
20260504220409 68 287 4.0 5.0 0.00 0.00 0.00 35 1012.6
20260504215910 69 294 6.0 5.0 0.00 0.00 0.00 35 1012.7
20260504215408 69 335 7.0 4.0 0.00 0.00 0.00 34 1012.7
20260504214909 69 291 6.0 10.0 0.00 0.00 0.00 35 1012.7
20260504214410 69 294 5.0 3.0 0.00 0.00 0.00 35 1012.7
20260504213912 69 225 6.0 9.0 0.00 0.00 0.00 35 1012.7
20260504213413 69 333 8.0 10.0 0.00 0.00 0.00 35 1012.7
20260504212911 69 301 6.0 5.0 0.00 0.00 0.00 35 1012.6
20260504212412 69 305 3.0 5.0 0.00 0.00 0.00 35 1012.5
20260504211913 69 318 4.0 3.0 0.00 0.00 0.00 34 1012.6
20260504211415 70 285 6.0 17.0 0.00 0.00 0.00 34 1012.6
20260504210916 70 291 4.0 3.0 0.00 0.00 0.00 35 1012.7
20260504210414 70 339 8.0 6.0 0.00 0.00 0.00 34 1012.6
20260504205915 70 25 2.0 4.0 0.00 0.00 0.00 33 1012.5
20260504205417 70 330 5.0 5.0 0.00 0.00 0.00 33 1012.6
20260504204918 70 305 7.0 7.0 0.00 0.00 0.00 33 1012.6
20260504204419 70 333 7.0 4.0 0.00 0.00 0.00 33 1012.6
20260504202420 70 311 6.0 9.0 0.00 0.00 0.00 33 1012.6
20260504201922 69 287 5.0 10.0 0.00 0.00 0.00 33 1012.6
20260504200922 69 332 3.0 4.0 0.00 0.00 0.00 30 1012.6
20260504195425 70 31 4.0 4.0 0.00 0.00 0.00 28 1012.6
20260504194923 70 10 8.0 5.0 0.00 0.00 0.00 28 1012.7
20260504194424 69 308 4.0 4.0 0.00 0.00 0.00 27 1012.6
20260504193926 69 84 5.0 0.0 0.00 0.00 0.00 28 1012.7
20260504193426 69 308 6.0 6.0 0.00 0.00 0.00 28 1012.7
20260504192426 69 10 4.0 2.0 0.00 0.00 0.00 28 1012.6
20260504191927 69 318 6.0 0.0 0.00 0.00 0.00 29 1012.7
20260504191428 69 32 3.0 2.0 0.00 0.00 0.00 27 1012.7
20260504190929 69 318 3.0 4.0 0.00 0.00 0.00 30 1012.7
20260504190444 69 346 4.0 3.0 0.00 0.00 0.00 28 1012.7
20260504185430 68 329 4.0 4.0 0.00 0.00 0.00 30 1012.6
20260504184931 68 41 4.0 4.0 0.00 0.00 0.00 31 1012.7
20260504183934 68 280 4.0 4.0 0.00 0.00 0.00 28 1012.7
20260504181935 68 302 7.0 9.0 0.00 0.00 0.00 28 1012.7
20260504180935 67 309 4.0 5.0 0.00 0.00 0.00 33 1012.6
20260504180436 67 328 6.0 7.0 0.00 0.00 0.00 36 1012.7
20260504174939 66 347 4.0 2.0 0.00 0.00 0.00 44 1012.6
20260504173938 66 39 4.0 3.0 0.00 0.00 0.00 39 1012.5
20260504173439 66 298 4.0 6.0 0.00 0.00 0.00 43 1012.5
20260504172940 66 280 7.0 3.0 0.00 0.00 0.00 41 1012.4
20260504172441 65 316 1.0 5.0 0.00 0.00 0.00 48 1012.2
20260504171940 65 287 4.0 4.0 0.00 0.00 0.00 47 1012.4
20260504171441 64 284 5.0 4.0 0.00 0.00 0.00 51 1012.2
20260504170942 64 308 3.0 2.0 0.00 0.00 0.00 51 1012.2
20260504170443 63 321 4.0 6.0 0.00 0.00 0.00 51 1012.2